• In India
  • List of Countries
  • For 7 days
  • Water Temperature
  • Satellite Maps
  • Weather Map
  • Weather Widgets
  • user-avatar
    Login

    Hourly Weather Cumbitara

    Today, 19 February, Monday

    Time Temperature Precipitation Wind Pressure Humidity
    00:00 +14°C° 3.5 mm 0 mps 613 mmHg 93%
    01:00 +14°C° 3.5 mm 0 mps 613 mmHg 93%
    02:00 +14°C° 3.6 mm 0 mps 612 mmHg 93%
    03:00 +15°C° 3.6 mm 1 mps 612 mmHg 93%
    04:00 +14°C° 3.6 mm 1 mps 612 mmHg 93%
    05:00 +14°C° 2.6 mm 1 mps 612 mmHg 93%
    06:00 +14°C° 2.6 mm 1 mps 612 mmHg 92%
    07:00 +14°C° 2.6 mm 1 mps 612 mmHg 91%
    08:00 +15°C° 0.9 mm 1 mps 613 mmHg 88%
    09:00 +16°C° 0.9 mm 1 mps 613 mmHg 84%
    10:00 +16°C° 0.9 mm 1 mps 614 mmHg 81%
    11:00 +18°C° 0.6 mm 1 mps 614 mmHg 78%
    12:00 +19°C° 0.6 mm 1 mps 614 mmHg 75%
    13:00 +20°C° 0.6 mm 1 mps 614 mmHg 72%
    14:00 +20°C° 0.5 mm 1 mps 613 mmHg 73%
    15:00 +20°C° 0.5 mm 1 mps 613 mmHg 74%
    16:00 +19°C° 0.5 mm 2 mps 612 mmHg 75%
    17:00 +19°C° 0.9 mm 1 mps 612 mmHg 80%
    18:00 +16°C° 0.9 mm 1 mps 612 mmHg 86%
    19:00 +15°C° 0.9 mm 1 mps 612 mmHg 92%
    20:00 +15°C° 0.2 mm 1 mps 612 mmHg 92%
    21:00 +15°C° 0.2 mm 1 mps 612 mmHg 91%
    22:00 +14°C° 0.2 mm 0 mps 613 mmHg 91%
    23:00 +14°C° 0.1 mm 1 mps 613 mmHg 90%

    Tomorrow, 20 February, Tuesday

    Time Temperature Precipitation Wind Pressure Humidity
    00:00 +14°C° 0.1 mm 1 mps 612 mmHg 89%
    01:00 +14°C° 0.1 mm 1 mps 612 mmHg 88%
    02:00 +14°C° 0.2 mm 1 mps 612 mmHg 87%
    03:00 +14°C° 0.2 mm 1 mps 612 mmHg 86%
    04:00 +14°C° 0.2 mm 1 mps 611 mmHg 85%
    05:00 +14°C° 0.2 mm 1 mps 612 mmHg 84%
    06:00 +14°C° 0.2 mm 1 mps 612 mmHg 83%
    07:00 +14°C° 0.2 mm 1 mps 612 mmHg 82%
    08:00 +16°C° 0.2 mm 1 mps 613 mmHg 76%
    09:00 +19°C° 0.2 mm 1 mps 614 mmHg 70%
    10:00 +21°C° 0.2 mm 1 mps 615 mmHg 63%
    11:00 +21°C° 0.3 mm 1 mps 615 mmHg 63%
    12:00 +21°C° 0.3 mm 2 mps 615 mmHg 63%
    13:00 +21°C° 0.3 mm 2 mps 615 mmHg 62%
    14:00 +21°C° 1.3 mm 2 mps 614 mmHg 67%
    15:00 +20°C° 1.3 mm 2 mps 613 mmHg 73%
    16:00 +19°C° 1.3 mm 2 mps 613 mmHg 78%
    17:00 +18°C° 1.5 mm 2 mps 612 mmHg 83%
    18:00 +18°C° 1.5 mm 1 mps 612 mmHg 88%
    19:00 +15°C° 1.5 mm 1 mps 612 mmHg 94%
    20:00 +15°C° 0.9 mm 1 mps 613 mmHg 93%
    21:00 +14°C° 0.9 mm 0 mps 613 mmHg 93%
    22:00 +14°C° 0.9 mm 0 mps 614 mmHg 93%
    23:00 +14°C° 0.4 mm 0 mps 614 mmHg 92%

    Day after tomorrow, 21 February, Wednesday

    Time Temperature Precipitation Wind Pressure Humidity
    00:00 +14°C° 0.4 mm 0 mps 613 mmHg 91%
    01:00 +13°C° 0.4 mm 0 mps 613 mmHg 90%
    02:00 +14°C° 0.1 mm 1 mps 613 mmHg 89%
    03:00 +14°C° 0.1 mm 1 mps 613 mmHg 87%
    04:00 +14°C° 0.1 mm 1 mps 612 mmHg 86%
    05:00 +14°C° 0 mm 1 mps 613 mmHg 84%
    06:00 +14°C° 0 mm 1 mps 613 mmHg 83%
    07:00 +14°C° 0 mm 1 mps 613 mmHg 81%
    08:00 +16°C° 0 mm 1 mps 614 mmHg 74%
    09:00 +19°C° 0 mm 1 mps 615 mmHg 66%
    10:00 +21°C° 0 mm 1 mps 616 mmHg 59%
    11:00 +22°C° 0.1 mm 1 mps 616 mmHg 59%
    12:00 +21°C° 0.1 mm 2 mps 616 mmHg 58%
    13:00 +22°C° 0.1 mm 3 mps 615 mmHg 58%
    14:00 +21°C° 0.7 mm 2 mps 614 mmHg 63%
    15:00 +20°C° 0.7 mm 2 mps 614 mmHg 68%
    16:00 +20°C° 0.7 mm 2 mps 613 mmHg 74%
    17:00 +18°C° 1.6 mm 2 mps 613 mmHg 80%
    18:00 +18°C° 1.6 mm 1 mps 613 mmHg 86%
    19:00 +15°C° 1.6 mm 1 mps 613 mmHg 92%
    20:00 +15°C° 1 mm 1 mps 613 mmHg 93%
    21:00 +14°C° 1 mm 0 mps 614 mmHg 93%
    22:00 +14°C° 1 mm 0 mps 614 mmHg 93%
    23:00 +14°C° 0.7 mm 0 mps 614 mmHg 93%

    22 February, Thursday

    Time Temperature Precipitation Wind Pressure Humidity
    00:00 +14°C° 0.7 mm 0 mps 614 mmHg 92%
    01:00 +13°C° 0.7 mm 0 mps 613 mmHg 91%
    02:00 +14°C° 0.8 mm 1 mps 613 mmHg 90%
    03:00 +14°C° 0.8 mm 1 mps 613 mmHg 89%
    04:00 +14°C° 0.8 mm 1 mps 613 mmHg 88%
    05:00 +14°C° 0.3 mm 1 mps 613 mmHg 86%
    06:00 +14°C° 0.3 mm 1 mps 613 mmHg 85%
    07:00 +14°C° 0.3 mm 1 mps 613 mmHg 83%
    08:00 +16°C° 0.1 mm 1 mps 614 mmHg 76%
    09:00 +18°C° 0.1 mm 1 mps 615 mmHg 69%
    10:00 +20°C° 0.1 mm 1 mps 616 mmHg 62%
    11:00 +20°C° 0.1 mm 2 mps 616 mmHg 61%
    12:00 +21°C° 0.1 mm 2 mps 616 mmHg 59%
    13:00 +23°C° 0.1 mm 2 mps 615 mmHg 58%
    14:00 +21°C° 1.1 mm 2 mps 614 mmHg 64%
    15:00 +20°C° 1.1 mm 2 mps 613 mmHg 71%
    16:00 +19°C° 1.1 mm 2 mps 613 mmHg 77%
    17:00 +18°C° 1.1 mm 2 mps 612 mmHg 82%
    18:00 +16°C° 1.1 mm 1 mps 612 mmHg 87%
    19:00 +15°C° 1.1 mm 1 mps 612 mmHg 92%
    20:00 +15°C° 0.9 mm 1 mps 613 mmHg 92%
    21:00 +14°C° 0.9 mm 0 mps 613 mmHg 92%
    22:00 +14°C° 0.9 mm 0 mps 614 mmHg 92%
    23:00 +13°C° 0.7 mm 0 mps 613 mmHg 91%

    23 February, Friday

    Time Temperature Precipitation Wind Pressure Humidity
    00:00 +13°C° 0.7 mm 0 mps 613 mmHg 90%
    01:00 +14°C° 0.7 mm 1 mps 613 mmHg 90%
    02:00 +14°C° 0.4 mm 1 mps 613 mmHg 89%
    03:00 +13°C° 0.4 mm 1 mps 612 mmHg 88%
    04:00 +13°C° 0.4 mm 1 mps 612 mmHg 87%
    05:00 +13°C° 0.1 mm 1 mps 612 mmHg 86%
    06:00 +13°C° 0.1 mm 1 mps 612 mmHg 85%
    07:00 +13°C° 0.1 mm 1 mps 613 mmHg 84%
    08:00 +16°C° 0 mm 1 mps 614 mmHg 75%
    09:00 +19°C° 0 mm 1 mps 615 mmHg 65%
    10:00 +22°C° 0 mm 1 mps 616 mmHg 56%
    11:00 +22°C° 0.1 mm 1 mps 615 mmHg 57%
    12:00 +21°C° 0.1 mm 2 mps 615 mmHg 57%
    13:00 +23°C° 0.1 mm 2 mps 615 mmHg 58%
    14:00 +21°C° 1.1 mm 2 mps 614 mmHg 64%
    15:00 +20°C° 1.1 mm 2 mps 613 mmHg 71%
    16:00 +19°C° 1.1 mm 2 mps 612 mmHg 78%
    17:00 +17°C° 1.2 mm 2 mps 612 mmHg 83%
    18:00 +16°C° 1.2 mm 1 mps 612 mmHg 88%
    19:00 +15°C° 1.2 mm 1 mps 612 mmHg 93%
    20:00 +15°C° 0.9 mm 1 mps 612 mmHg 93%
    21:00 +15°C° 0.9 mm 1 mps 613 mmHg 93%
    22:00 +13°C° 0.9 mm 0 mps 613 mmHg 93%
    23:00 +13°C° 0.4 mm 0 mps 613 mmHg 92%

    24 February, Saturday

    Time Temperature Precipitation Wind Pressure Humidity
    00:00 +13°C° 0.4 mm 0 mps 613 mmHg 91%
    01:00 +13°C° 0.4 mm 0 mps 612 mmHg 91%
    02:00 +12°C° 0.3 mm 0 mps 612 mmHg 90%
    03:00 +13°C° 0.3 mm 1 mps 612 mmHg 89%
    04:00 +13°C° 0.3 mm 1 mps 612 mmHg 89%
    05:00 +13°C° 0 mm 1 mps 612 mmHg 87%
    06:00 +13°C° 0 mm 1 mps 612 mmHg 86%
    07:00 +13°C° 0 mm 1 mps 613 mmHg 85%
    08:00 +15°C° 0.1 mm 1 mps 614 mmHg 75%
    09:00 +19°C° 0.1 mm 1 mps 615 mmHg 66%
    10:00 +21°C° 0.1 mm 1 mps 616 mmHg 57%
    11:00 +22°C° 0.2 mm 1 mps 615 mmHg 58%
    12:00 +21°C° 0.2 mm 2 mps 615 mmHg 58%
    13:00 +21°C° 0.2 mm 2 mps 615 mmHg 59%
    14:00 +20°C° 0.9 mm 2 mps 614 mmHg 65%
    15:00 +19°C° 0.9 mm 2 mps 613 mmHg 71%
    16:00 +18°C° 0.9 mm 2 mps 612 mmHg 77%
    17:00 +17°C° 1.4 mm 2 mps 612 mmHg 82%
    18:00 +16°C° 1.4 mm 1 mps 612 mmHg 88%
    19:00 +15°C° 1.4 mm 1 mps 612 mmHg 93%
    20:00 +14°C° 0.7 mm 1 mps 613 mmHg 93%
    21:00 +14°C° 0.7 mm 1 mps 613 mmHg 93%
    22:00 +13°C° 0.7 mm 0 mps 613 mmHg 93%
    23:00 +14°C° 0.2 mm 1 mps 613 mmHg 92%
    Show more